FW8852 Weather Reports


Display with metric or nautical units.
time (UTC)temp
F
wind
direction
speed
MPH
gust
MPH
rain 1hr
in
rain 24hr
in
rain mn
in
humidity
%
barometer
mb
20220627150053 71 209 0.0 2.0 0.00 0.00 0.00 92 1009.9
20220627144553 71 316 1.0 6.0 0.00 0.00 0.00 92 1009.9
20220627143048 71 186 0.0 2.0 0.00 0.00 0.00 92 1009.9
20220627141548 71 109 0.0 3.0 0.00 0.00 0.00 92 1009.8
20220627140049 71 109 0.0 2.0 0.00 0.00 0.00 90 1009.8
20220627134546 72 48 0.0 4.0 0.00 0.00 0.00 88 1009.9
20220627133051 72 253 0.0 5.0 0.00 0.00 0.00 87 1010.0
20220627131550 72 85 0.0 3.0 0.00 0.00 0.00 87 1009.9
20220627130044 72 21 0.0 1.0 0.00 0.00 0.00 86 1010.0
20220627124542 72 189 0.0 4.0 0.00 0.00 0.00 86 1009.9
20220627123045 71 218 0.0 3.0 0.00 0.00 0.00 86 1009.9
20220627121539 71 227 0.0 1.0 0.00 0.00 0.00 85 1009.9
20220627120038 70 225 0.0 1.0 0.00 0.00 0.00 85 1010.0
20220627114539 70 229 0.0 3.0 0.00 0.00 0.00 85 1009.9
20220627113037 70 13 0.0 2.0 0.00 0.00 0.00 85 1010.0
20220627111545 70 326 0.0 2.0 0.00 0.00 0.00 84 1010.0
20220627110036 69 185 0.0 1.0 0.00 0.00 0.00 84 1010.0
20220627104545 69 212 0.0 4.0 0.00 0.00 0.00 83 1010.0
20220627103038 69 166 0.0 1.0 0.00 0.00 0.00 83 1010.1
20220627101536 69 232 1.0 6.0 0.00 0.00 0.00 82 1010.0
20220627100029 69 237 0.0 4.0 0.00 0.00 0.00 82 1010.4
20220627094527 68 326 0.0 1.0 0.00 0.00 0.00 82 1010.4
20220627093026 68 219 0.0 4.0 0.00 0.00 0.00 82 1010.5
20220627091525 68 160 0.0 2.0 0.00 0.00 0.00 82 1010.6
20220627090024 68 154 0.0 2.0 0.00 0.00 0.00 82 1010.8
20220627084526 67 189 0.0 3.0 0.00 0.00 0.00 81 1010.9
20220627083020 67 139 0.0 2.0 0.00 0.00 0.00 81 1010.9
20220627081517 68 330 0.0 1.0 0.00 0.00 0.00 79 1011.0
20220627080015 68 253 0.0 1.0 0.00 0.00 0.00 78 1011.1
20220627074513 68 99 0.0 1.0 0.00 0.00 0.00 77 1011.3
20220627073011 68 164 0.0 2.0 0.00 0.00 0.00 76 1011.5
20220627071508 68 87 0.0 0.0 0.00 0.00 0.00 75 1011.8
20220627070009 68 220 0.0 3.0 0.00 0.00 0.00 74 1012.0
20220627064504 68 89 0.0 2.0 0.00 0.00 0.00 74 1012.2
20220627063003 68 141 0.0 1.0 0.00 0.00 0.00 73 1012.4
20220627061558 68 205 0.0 2.0 0.00 0.00 0.00 74 1012.6
20220627060056 68 76 0.0 2.0 0.00 0.00 0.00 72 1012.6
20220627054555 68 78 0.0 0.0 0.00 0.00 0.00 71 1012.7
20220627053052 69 79 0.0 1.0 0.00 0.00 0.00 71 1012.8
20220627051550 69 156 0.0 1.0 0.00 0.00 0.00 71 1012.9
20220627050047 69 160 0.0 1.0 0.00 0.00 0.00 69 1012.9
20220627044545 70 191 0.0 1.0 0.00 0.00 0.00 69 1013.0
20220627043042 70 86 0.0 1.0 0.00 0.00 0.00 67 1013.1
20220627041538 71 267 0.0 1.0 0.00 0.00 0.00 66 1013.2
20220627040038 71 150 0.0 2.0 0.00 0.00 0.00 66 1013.4
20220627034536 72 42 0.0 5.0 0.00 0.00 0.00 65 1013.5
20220627033037 72 248 0.0 4.0 0.00 0.00 0.00 65 1013.7
20220627031536 73 173 0.0 2.0 0.00 0.00 0.00 67 1013.8
20220627030033 73 254 0.0 5.0 0.00 0.00 0.00 69 1013.8
20220627024537 73 72 0.0 2.0 0.00 0.00 0.00 71 1013.8
20220627023033 74 48 0.0 3.0 0.00 0.00 0.00 72 1013.6
20220627021530 75 51 0.0 2.0 0.00 0.00 0.00 74 1013.8
20220627020032 75 243 0.0 4.0 0.00 0.00 0.00 75 1013.9
20220627014533 76 223 0.0 4.0 0.00 0.00 0.00 78 1013.9
20220627013028 76 155 0.0 2.0 0.00 0.00 0.00 78 1013.6
20220627011529 76 196 0.0 3.0 0.00 0.00 0.00 77 1013.5
20220627010028 77 11 0.0 5.0 0.00 0.00 0.00 76 1013.3
20220627004528 77 163 0.0 1.0 0.00 0.00 0.00 75 1013.3
20220627003036 78 208 0.0 2.0 0.00 0.00 0.00 74 1013.2
20220627001530 79 310 0.0 4.0 0.00 0.00 0.00 72 1013.2
20220627000026 80 195 0.0 4.0 0.00 0.00 0.00 72 1013.0
20220626234527 80 329 0.0 2.0 0.00 0.00 0.00 70 1013.0
20220626233026 81 128 0.0 2.0 0.00 0.00 0.00 69 1013.0
20220626231526 82 152 0.0 6.0 0.00 0.00 0.00 67 1012.9
20220626230024 83 170 0.0 3.0 0.00 0.00 0.00 63 1012.7
20220626224524 84 97 0.0 4.0 0.00 0.00 0.00 62 1012.7
20220626223027 84 230 0.0 8.0 0.00 0.00 0.00 59 1012.6
20220626221522 84 146 1.0 3.0 0.00 0.00 0.00 58 1012.6
20220626220021 85 31 0.0 4.0 0.00 0.00 0.00 59 1012.6
20220626214531 85 173 1.0 5.0 0.00 0.00 0.00 57 1012.8
20220626213025 85 118 0.0 1.0 0.00 0.00 0.00 60 1012.9
20220626211526 86 146 0.0 3.0 0.00 0.00 0.00 57 1013.1
20220626210014 88 87 0.0 5.0 0.00 0.00 0.00 54 1013.3
20220626204513 90 175 2.0 4.0 0.00 0.00 0.00 49 1013.4
20220626203014 92 128 1.0 3.0 0.00 0.00 0.00 46 1013.5
20220626201509 92 72 0.0 4.0 0.00 0.00 0.00 47 1013.6
20220626200007 92 147 0.0 3.0 0.00 0.00 0.00 50 1013.6
20220626194503 91 16 0.0 3.0 0.00 0.00 0.00 47 1013.9
20220626193001 90 268 0.0 4.0 0.00 0.00 0.00 49 1014.2
20220626191607 91 8 2.0 5.0 0.00 0.00 0.00 46 1014.2
20220626190058 91 66 0.0 3.0 0.00 0.00 0.00 48 1014.4
20220626184554 90 310 0.0 2.0 0.00 0.00 0.00 48 1014.6
20220626183052 90 199 0.0 3.0 0.00 0.00 0.00 46 1014.7
20220626181549 89 26 0.0 4.0 0.00 0.00 0.00 49 1014.8
20220626180046 90 192 0.0 2.0 0.00 0.00 0.00 52 1015.0
20220626174543 89 83 1.0 4.0 0.00 0.00 0.00 52 1015.2
20220626173045 89 58 0.0 3.0 0.00 0.00 0.00 52 1015.4
20220626171539 88 76 0.0 4.0 0.00 0.00 0.00 56 1015.7
20220626170036 89 93 0.0 3.0 0.00 0.00 0.00 52 1015.8
20220626164535 89 227 2.0 7.0 0.00 0.00 0.00 50 1016.1
20220626163033 89 130 0.0 2.0 0.00 0.00 0.00 52 1016.2
20220626161528 88 282 1.0 3.0 0.00 0.00 0.00 50 1016.3
20220626160025 88 289 0.0 2.0 0.00 0.00 0.00 50 1016.5
20220626154523 88 248 0.0 2.0 0.00 0.00 0.00 56 1016.6
20220626153021 87 152 0.0 3.0 0.00 0.00 0.00 57 1016.8